Regional Weather Roundup
Issued by NWS

Home | Current Version | Previous Version | Graphics & Text | Print | Product List | Glossary On
Versions: 1 2 3 4 5 6 7 8 9 10 11 12 13 14 15 16 17 18 19 20 21 22 23 24 25 26 27 28 29 30 31 32 33 34 35 36 37 38 39 40 41 42 43 44 45 46 47 48 49 50
000
ASUS45 KTFX 241504
RWRMT
MONTANA HOURLY WEATHER ROUNDUP
NATIONAL WEATHER SERVICE GREAT FALLS MT
904 AM MDT THU JUL 24 2014

NOTE: "FAIR" INDICATES FEW OR NO CLOUDS BELOW 12000 FEET WITH NO
SIGNIFICANT WEATHER AND/OR OBSTRUCTIONS TO VISIBILITY.

* THESE STATIONS ARE NOT UNDER NWS QUALITY CONTROL. THEY DO NOT
   REPORT WEATHER SUCH AS PRECIPITATION OR FOG.

MTZ001>007-043-241600-
WEST OF THE DIVIDE
CITY           SKY/WX    TMP DP  RH WIND       PRES   REMARKS
KALISPELL      LGT RAIN  57  37  47 W16G23    30.04R
MISSOULA       CLOUDY    61  45  56 NW14G23   30.07R
BUTTE          SUNNY     57  48  72 VRB5      30.07F
MULLAN PASS    CLOUDY    37  36  96 VRB6      30.16R WCI  32
* ESSEX        N/A       56  44  64 W1         N/A
* LINCOLN      N/A       58  47  67 S5G14      N/A
* LOOKOUT PASS N/A       45  37  74 SE2G10     N/A
* POLSON       N/A       53  42  66 W4G10      N/A
* RONAN APT    PTSUNNY   59  43  56 SW13       N/A
* SEELEY LAKE  N/A       60  43  54 W4         N/A
* THOMP F APT  PTCLDY    65  35  33 SE5        N/A
$$

MTZ008-052>055-241600-
SOUTHWEST MONTANA
CITY           SKY/WX    TMP DP  RH WIND       PRES   REMARKS
BOZEMAN        SUNNY     68  52  57 CALM      29.98R
DILLON         SUNNY     64  52  65 SW5       30.02R
W YELLOWSTONE  SUNNY     66  36  33 SW15G26   30.15R
* THREE FORKS  SUNNY     68  68 100 N/A        N/A
* BOULDER HILL N/A       60  44  56 N7         N/A
* MONIDA PASS  N/A       62  36  38 SE20       N/A
* RAYNOLDS PAS N/A       63  38  40 S24G30     N/A
* WHITEHALL    N/A       61  55  81 SW2        N/A
* WISE RIVER   N/A       51  45  80 N4         N/A
$$

MTZ009>010-012-014-046-048-049-054-241600-
EAST SLOPES AND CENTRAL MONTANA
CITY           SKY/WX    TMP DP  RH WIND       PRES   REMARKS
CUT BANK       CLOUDY    63  45  52 W22G29    29.93F
GREAT FALLS    SUNNY     66  54  65 SW9       29.93F
HELENA         SUNNY     70  50  49 W13       29.96F
MALMSTROM AFB  SUNNY     68  54  61 SW6       29.94F
* CONRAD       PTCLDY    66  55  68 N/A        N/A
* DEARBORN     N/A       65  55  70 N/A        N/A
* EAST GLACIER N/A       57  41  55 W20G29     N/A
* MONARCH      N/A       63  48  58 NW11       N/A
* PENDROY      N/A       65  52  63 NE4        N/A
* ROGERS PASS  N/A       55  45  69 N/A        N/A
* SAINT MARY   N/A       58  43  58 SW7G22     N/A
* SWEET GRASS  N/A       61  55  81 W6G16      N/A
$$

MTZ011-013-016-021-035-040-045-047-050-051-241600-
NORTH CENTRAL MONTANA
CITY           SKY/WX    TMP DP  RH WIND       PRES   REMARKS
HAVRE          SUNNY     68  57  68 SW12      29.83F
LEWISTOWN      SUNNY     70  55  59 W9        29.92S
* CHESTER      N/A       68  57  68 W6         N/A
* DENTON       N/A       71  52  51 W5         N/A
* GEYSER       N/A       70  55  59 W14G19     N/A
* JUDITH GAP   N/A       68  52  57 N18        N/A
* LOMA         N/A       66  60  81 SW6        N/A
$$

MTZ017>020-022>027-061-062-241600-
NORTHEAST MONTANA
CITY           SKY/WX    TMP DP  RH WIND       PRES   REMARKS
GLASGOW        SUNNY     73  61  66 SE14      29.80R
GLENDIVE       SUNNY    N/A N/A N/A E20       29.83F
JORDAN         PTCLDY    75  57  54 SE10      29.79F
SIDNEY         SUNNY     72  63  73 SE17G23   29.85F
WOLF POINT     PTCLDY    79  61  54 SE9       29.80F
* BEAVER HILL  N/A       68  60  76 E27G40     N/A
* CIRCLE       N/A       70  61  73 E11G18     N/A
* LINDSAY DVD  N/A       68  58  71 E16        N/A
* NAVAJO       N/A       67  61  81 SE16G22    N/A
$$

MTZ028>042-056>058-241600-
SOUTHCENTRAL AND SOUTHEAST MONTANA
CITY           SKY/WX    TMP DP  RH WIND       PRES   REMARKS
BAKER          SUNNY     70  59  68 E18G25    29.87S
BILLINGS       PTCLDY    73  59  62 S7        29.87S
LIVINGSTON     SUNNY     81  41  24 W20       29.92R
MILES CITY     SUNNY     75  57  54 E13       29.77F
* LAUREL APT   PTCLDY    70  57  64 S6         N/A
* ROUNDUP APT  CLOUDY    70  57  64 N6         N/A
* ALZADA       N/A       81  61  51 SE2        N/A   HI  82
* HYSHAM       N/A       74  58  58 SE4G9      N/A
* LAME DEER    N/A       78  57  49 NW6G13     N/A
* REED POINT   N/A       74  53  48 E8         N/A
* ROSCOE HILL  N/A       82  38  21 S7G13      N/A
$$

REGIONAL REPORTS...DAKOTAS
CITY           SKY/WX    TMP DP  RH WIND       PRES   REMARKS
WILLISTON      PTSUNNY   73  59  62 SE21      29.85S
DICKINSON      PTSUNNY   66  61  84 E22G29    29.85F
CROSBY         N/A       66  66 100 SE13G20   29.82F
TIOGA          SUNNY     66  66 100 SE15G22   29.92F
WATFORD CITY   SUNNY     68  63  84 SE18G24   29.86R
BISMARCK       CLOUDY    64  61  90 NE17      29.96F
GRAND FORKS    CLOUDY    68  61  78 S9        30.03F
FARGO          PTSUNNY   73  59  62 S13       30.04F
BUFFALO SD     PTCLDY    72  63  73 NE17      29.79R
RAPID CITY     PTCLDY    75  68  79 S7        29.84F
$$

REGIONAL REPORTS...WYOMING/IDAHO/WASHINGTON
CITY           SKY/WX    TMP DP  RH WIND       PRES   REMARKS
GILLETTE       PTCLDY    82  45  27 SW14      29.89F
SHERIDAN       PTCLDY    93  46  20 W15G22    29.85R
YELLOWSTONE LA SUNNY     64  34  33 VRB5      30.25F
SALMON         SUNNY     64  48  56 SW6       30.01R
MULLAN PASS    CLOUDY    37  36  96 VRB6      30.16S WCI  32
SAND POINT     CLOUDY    54  45  72 SW7       30.12R
SPOKANE        PTSUNNY   52  45  77 S14       30.13R

$$



USA.gov is the U.S. government's official web portal to all federal, state and local government web resources and services.